Data No,UTC Date,UTC Time,Latitude,Longitude,Course(deg),Temp(degC),Sal(psu)
497,2023/4/29,8:16,42-36.89N,141-37.03E,212,6.161,
498,2023/4/29,8:17,42-36.66N,141-36.83E,211,5.835,
499,2023/4/29,8:18,42-36.38N,141-36.73E,190,6.056,
500,2023/4/29,8:19,42-36.09N,141-36.73E,179,5.739,
501,2023/4/29,8:20,42-35.80N,141-36.75E,177,5.713,
502,2023/4/29,8:21,42-35.50N,141-36.77E,177,5.716,
503,2023/4/29,8:22,42-35.18N,141-36.78E,177,5.588,
504,2023/4/29,8:23,42-34.86N,141-36.80E,178,5.57,
505,2023/4/29,8:24,42-34.54N,141-36.80E,178,5.694,
506,2023/4/29,8:25,42-34.23N,141-36.81E,179,5.57,
507,2023/4/29,8:26,42-33.89N,141-36.82E,179,5.551,
508,2023/4/29,8:27,42-33.59N,141-36.84E,179,5.649,
509,2023/4/29,8:28,42-33.26N,141-36.85E,179,5.801,
510,2023/4/29,8:29,42-32.94N,141-36.86E,178,6,
511,2023/4/29,8:30,42-32.61N,141-36.86E,181,6.308,
512,2023/4/29,8:31,42-32.28N,141-36.86E,181,6.388,
513,2023/4/29,8:32,42-31.93N,141-36.85E,181,6.379,
514,2023/4/29,8:33,42-31.60N,141-36.84E,181,6.442,
515,2023/4/29,8:34,42-31.28N,141-36.83E,181,6.533,
516,2023/4/29,8:35,42-30.94N,141-36.81E,182,6.734,
517,2023/4/29,8:36,42-30.60N,141-36.80E,181,6.751,
518,2023/4/29,8:37,42-30.26N,141-36.79E,182,6.757,
519,2023/4/29,8:38,42-29.92N,141-36.80E,181,6.696,
520,2023/4/29,8:39,42-29.58N,141-36.79E,180,6.68,
521,2023/4/29,8:40,42-29.24N,141-36.78E,180,6.743,
522,2023/4/29,8:41,42-28.90N,141-36.77E,181,6.807,
523,2023/4/29,8:42,42-28.56N,141-36.76E,181,6.831,
524,2023/4/29,8:43,42-28.20N,141-36.75E,181,6.765,
525,2023/4/29,8:44,42-27.85N,141-36.75E,181,6.714,
526,2023/4/29,8:45,42-27.53N,141-36.74E,181,6.611,
527,2023/4/29,8:46,42-27.18N,141-36.70E,185,6.612,
528,2023/4/29,8:47,42-26.83N,141-36.66E,185,6.666,
529,2023/4/29,8:48,42-26.48N,141-36.61E,185,6.623,
530,2023/4/29,8:49,42-26.12N,141-36.57E,185,6.659,
531,2023/4/29,8:50,42-25.78N,141-36.52E,185,6.648,
532,2023/4/29,8:51,42-25.48N,141-36.49E,185,7.032,
533,2023/4/29,8:52,42-25.13N,141-36.45E,185,7.124,
534,2023/4/29,8:53,42-24.77N,141-36.40E,185,7.127,
535,2023/4/29,8:54,42-24.42N,141-36.36E,185,7.007,
536,2023/4/29,8:55,42-24.06N,141-36.31E,185,6.924,
537,2023/4/29,8:56,42-23.65N,141-36.25E,186,6.866,
538,2023/4/29,8:57,42-23.29N,141-36.21E,186,6.834,
539,2023/4/29,8:58,42-22.92N,141-36.15E,186,6.792,
540,2023/4/29,8:59,42-22.56N,141-36.10E,185,6.89,
541,2023/4/29,9:00,42-22.19N,141-36.02E,189,6.984,
542,2023/4/29,9:01,42-21.80N,141-35.94E,189,7.088,
543,2023/4/29,9:02,42-21.46N,141-35.86E,189,7.229,
544,2023/4/29,9:03,42-21.09N,141-35.78E,189,7.302,
545,2023/4/29,9:04,42-20.75N,141-35.71E,188,7.155,
546,2023/4/29,9:05,42-20.41N,141-35.64E,188,7.097,
547,2023/4/29,9:06,42-19.98N,141-35.54E,188,7.02,
548,2023/4/29,9:07,42-19.67N,141-35.48E,188,6.981,
549,2023/4/29,9:08,42-19.29N,141-35.40E,188,6.989,
550,2023/4/29,9:09,42-18.93N,141-35.32E,189,7.225,
551,2023/4/29,9:10,42-18.56N,141-35.24E,188,7.258,
552,2023/4/29,9:11,42-18.17N,141-35.16E,188,7.118,
553,2023/4/29,9:12,42-17.81N,141-35.08E,189,7.106,
554,2023/4/29,9:13,42-17.42N,141-35.00E,189,7.118,
555,2023/4/29,9:14,42-17.06N,141-34.92E,189,7.114,
556,2023/4/29,9:15,42-16.68N,141-34.83E,189,7.065,
557,2023/4/29,9:16,42-16.30N,141-34.74E,189,6.982,
558,2023/4/29,9:17,42-15.93N,141-34.66E,188,7.011,
559,2023/4/29,9:18,42-15.54N,141-34.57E,189,7.115,
560,2023/4/29,9:19,42-15.17N,141-34.49E,189,7.055,
561,2023/4/29,9:20,42-14.78N,141-34.39E,192,7.077,
562,2023/4/29,9:21,42-14.36N,141-34.25E,193,7.106,
563,2023/4/29,9:22,42-13.99N,141-34.14E,192,7.25,
564,2023/4/29,9:23,42-13.60N,141-34.01E,193,7.205,
565,2023/4/29,9:24,42-13.29N,141-33.91E,193,7.179,
566,2023/4/29,9:25,42-12.91N,141-33.79E,193,7.061,
567,2023/4/29,9:26,42-12.48N,141-33.67E,190,7.038,
568,2023/4/29,9:27,42-12.11N,141-33.64E,181,7.008,
569,2023/4/29,9:28,42-11.71N,141-33.66E,177,6.993,
570,2023/4/29,9:29,42-11.34N,141-33.68E,177,6.94,
571,2023/4/29,9:30,42-10.96N,141-33.69E,178,6.9,
572,2023/4/29,9:31,42-10.57N,141-33.71E,178,6.868,
573,2023/4/29,9:32,42-10.19N,141-33.73E,178,6.861,
574,2023/4/29,9:33,42-09.79N,141-33.75E,177,6.879,
575,2023/4/29,9:34,42-09.42N,141-33.76E,177,6.939,
576,2023/4/29,9:35,42-09.03N,141-33.78E,177,6.953,
577,2023/4/29,9:36,42-08.64N,141-33.79E,178,6.99,
578,2023/4/29,9:37,42-08.26N,141-33.82E,177,6.988,
579,2023/4/29,9:38,42-07.86N,141-33.85E,178,6.971,
580,2023/4/29,9:39,42-07.49N,141-33.87E,178,6.994,
581,2023/4/29,9:40,42-07.10N,141-33.89E,178,6.993,
582,2023/4/29,9:41,42-06.71N,141-33.91E,178,6.971,
583,2023/4/29,9:42,42-06.33N,141-33.92E,178,6.902,
584,2023/4/29,9:43,42-05.94N,141-33.94E,177,6.918,
585,2023/4/29,9:44,42-05.55N,141-33.96E,177,6.907,
586,2023/4/29,9:45,42-05.17N,141-33.98E,178,6.942,
587,2023/4/29,9:46,42-04.77N,141-34.02E,178,6.941,
588,2023/4/29,9:47,42-04.38N,141-34.04E,177,6.931,
589,2023/4/29,9:48,42-03.99N,141-34.07E,177,6.971,
590,2023/4/29,9:49,42-03.62N,141-34.09E,177,7.02,
591,2023/4/29,9:50,42-03.23N,141-34.10E,178,7.01,
592,2023/4/29,9:51,42-02.84N,141-34.12E,177,6.964,
593,2023/4/29,9:52,42-02.47N,141-34.14E,178,6.912,
594,2023/4/29,9:53,42-02.05N,141-34.19E,177,6.91,
595,2023/4/29,9:54,42-01.67N,141-34.21E,178,6.972,
596,2023/4/29,9:55,42-01.35N,141-34.21E,178,7.122,
597,2023/4/29,9:56,42-00.96N,141-34.25E,178,7.233,
598,2023/4/29,9:57,42-00.57N,141-34.26E,178,7.167,
599,2023/4/29,9:58,42-00.19N,141-34.27E,178,7.231,
600,2023/4/29,9:59,41-59.82N,141-34.28E,178,7.364,
601,2023/4/29,10:00,41-59.43N,141-34.29E,178,7.348,
602,2023/4/29,10:01,41-59.04N,141-34.31E,178,7.387,
603,2023/4/29,10:02,41-58.66N,141-34.33E,178,7.433,
604,2023/4/29,10:03,41-58.28N,141-34.35E,178,7.427,
605,2023/4/29,10:04,41-57.90N,141-34.36E,178,7.441,
606,2023/4/29,10:05,41-57.51N,141-34.37E,178,7.416,
607,2023/4/29,10:06,41-57.13N,141-34.39E,178,7.388,
608,2023/4/29,10:07,41-56.75N,141-34.45E,172,7.324,
609,2023/4/29,10:08,41-56.37N,141-34.51E,172,7.247,
610,2023/4/29,10:09,41-55.99N,141-34.57E,173,7.179,
611,2023/4/29,10:10,41-55.61N,141-34.63E,173,7.143,
612,2023/4/29,10:11,41-55.21N,141-34.69E,173,7.117,
613,2023/4/29,10:12,41-54.84N,141-34.75E,173,7.117,
614,2023/4/29,10:13,41-54.45N,141-34.82E,172,7.144,
615,2023/4/29,10:14,41-54.07N,141-34.88E,173,7.123,
616,2023/4/29,10:15,41-53.69N,141-34.94E,173,7.141,
617,2023/4/29,10:16,41-53.30N,141-35.00E,172,7.199,
618,2023/4/29,10:17,41-52.92N,141-35.06E,172,7.225,
619,2023/4/29,10:18,41-52.53N,141-35.12E,175,7.228,
620,2023/4/29,10:19,41-52.15N,141-35.12E,179,7.245,
621,2023/4/29,10:20,41-51.77N,141-35.12E,179,7.275,
622,2023/4/29,10:21,41-51.38N,141-35.12E,179,7.288,
623,2023/4/29,10:22,41-51.00N,141-35.12E,180,7.289,
624,2023/4/29,10:23,41-50.61N,141-35.12E,179,7.291,
625,2023/4/29,10:24,41-50.22N,141-35.14E,177,7.286,
626,2023/4/29,10:25,41-49.85N,141-35.16E,177,7.285,
627,2023/4/29,10:26,41-49.47N,141-35.21E,172,7.289,
628,2023/4/29,10:27,41-49.10N,141-35.27E,172,7.277,
629,2023/4/29,10:28,41-48.72N,141-35.34E,172,7.185,
630,2023/4/29,10:29,41-48.33N,141-35.41E,171,6.933,
631,2023/4/29,10:30,41-47.96N,141-35.48E,172,6.751,
632,2023/4/29,10:31,41-47.58N,141-35.55E,172,6.705,
633,2023/4/29,10:32,41-47.21N,141-35.62E,171,6.721,
634,2023/4/29,10:33,41-46.82N,141-35.69E,172,6.677,
635,2023/4/29,10:34,41-46.43N,141-35.76E,171,6.735,
636,2023/4/29,10:35,41-46.06N,141-35.83E,171,6.704,
637,2023/4/29,10:36,41-45.67N,141-35.91E,171,6.721,
638,2023/4/29,10:37,41-45.29N,141-35.98E,171,6.758,
639,2023/4/29,10:38,41-44.90N,141-36.06E,171,7.385,
640,2023/4/29,10:39,41-44.52N,141-36.14E,170,8.054,
641,2023/4/29,10:40,41-44.14N,141-36.24E,169,9.332,
642,2023/4/29,10:41,41-43.74N,141-36.33E,169,10.072,
643,2023/4/29,10:42,41-43.36N,141-36.42E,169,10.22,
644,2023/4/29,10:43,41-42.97N,141-36.52E,169,10.338,
645,2023/4/29,10:44,41-42.59N,141-36.59E,171,10.301,
646,2023/4/29,10:45,41-42.19N,141-36.67E,171,10.285,
647,2023/4/29,10:46,41-41.80N,141-36.75E,171,10.415,
648,2023/4/29,10:47,41-41.42N,141-36.82E,171,10.419,
649,2023/4/29,10:48,41-41.02N,141-36.91E,170,10.335,
650,2023/4/29,10:49,41-40.64N,141-36.99E,171,10.318,
651,2023/4/29,10:50,41-40.25N,141-37.07E,171,10.285,
652,2023/4/29,10:51,41-39.85N,141-37.15E,171,10.142,
653,2023/4/29,10:52,41-39.47N,141-37.23E,171,10.061,
654,2023/4/29,10:53,41-39.08N,141-37.31E,170,10.035,
655,2023/4/29,10:54,41-38.70N,141-37.40E,170,10.088,
656,2023/4/29,10:55,41-38.31N,141-37.48E,170,10.107,
657,2023/4/29,10:56,41-37.92N,141-37.57E,170,10.114,
658,2023/4/29,10:57,41-37.53N,141-37.66E,170,10.099,
659,2023/4/29,10:58,41-37.14N,141-37.74E,171,10.113,
660,2023/4/29,10:59,41-36.76N,141-37.82E,171,10.095,
661,2023/4/29,11:00,41-36.36N,141-37.89E,171,10.11,
662,2023/4/29,11:01,41-35.96N,141-37.97E,171,10.114,
663,2023/4/29,11:02,41-35.55N,141-38.05E,171,10.118,
664,2023/4/29,11:03,41-35.17N,141-38.13E,172,10.13,
665,2023/4/29,11:04,41-34.77N,141-38.20E,172,10.138,
666,2023/4/29,11:05,41-34.36N,141-38.27E,172,10.123,
667,2023/4/29,11:06,41-33.96N,141-38.36E,170,10.106,
668,2023/4/29,11:07,41-33.56N,141-38.45E,170,10.118,
669,2023/4/29,11:08,41-33.17N,141-38.53E,170,10.131,
670,2023/4/29,11:09,41-32.77N,141-38.62E,171,10.131,
671,2023/4/29,11:10,41-32.37N,141-38.71E,170,10.154,
672,2023/4/29,11:11,41-31.97N,141-38.80E,169,10.179,
673,2023/4/29,11:12,41-31.57N,141-38.90E,168,10.203,
674,2023/4/29,11:13,41-31.17N,141-39.01E,169,10.226,
675,2023/4/29,11:14,41-30.76N,141-39.11E,170,10.242,
676,2023/4/29,11:15,41-30.37N,141-39.20E,169,10.432,
677,2023/4/29,11:16,41-29.95N,141-39.30E,170,10.492,
678,2023/4/29,11:17,41-29.57N,141-39.39E,171,10.388,
679,2023/4/29,11:18,41-29.17N,141-39.48E,168,10.346,
680,2023/4/29,11:19,41-28.77N,141-39.59E,167,10.425,
681,2023/4/29,11:20,41-28.39N,141-39.70E,168,10.455,
682,2023/4/29,11:21,41-27.99N,141-39.81E,168,10.486,
683,2023/4/29,11:22,41-27.60N,141-39.93E,167,10.537,
684,2023/4/29,11:23,41-27.20N,141-40.04E,168,10.553,
685,2023/4/29,11:24,41-26.81N,141-40.15E,167,10.511,
686,2023/4/29,11:25,41-26.42N,141-40.27E,168,10.456,
687,2023/4/29,11:26,41-26.02N,141-40.39E,166,10.466,
688,2023/4/29,11:27,41-25.63N,141-40.51E,167,10.454,
689,2023/4/29,11:28,41-25.23N,141-40.63E,167,10.432,
690,2023/4/29,11:29,41-24.84N,141-40.76E,166,10.429,
691,2023/4/29,11:30,41-24.45N,141-40.87E,168,10.339,
692,2023/4/29,11:31,41-24.05N,141-40.97E,168,10.47,
693,2023/4/29,11:32,41-23.66N,141-41.08E,169,10.363,
694,2023/4/29,11:33,41-23.27N,141-41.17E,169,10.323,
695,2023/4/29,11:34,41-22.86N,141-41.27E,169,10.34,
696,2023/4/29,11:35,41-22.47N,141-41.37E,169,10.332,
697,2023/4/29,11:36,41-22.06N,141-41.47E,169,10.337,
698,2023/4/29,11:37,41-21.67N,141-41.56E,169,10.334,
699,2023/4/29,11:38,41-21.28N,141-41.65E,169,10.34,
700,2023/4/29,11:39,41-20.88N,141-41.75E,169,10.299,
701,2023/4/29,11:40,41-20.49N,141-41.85E,169,10.338,
702,2023/4/29,11:41,41-20.11N,141-41.94E,169,10.521,
703,2023/4/29,11:42,41-19.73N,141-42.03E,169,10.568,
704,2023/4/29,11:43,41-19.33N,141-42.13E,169,10.551,
705,2023/4/29,11:44,41-18.94N,141-42.23E,169,10.5,
706,2023/4/29,11:45,41-18.55N,141-42.33E,169,10.454,
707,2023/4/29,11:46,41-18.17N,141-42.43E,169,10.453,
708,2023/4/29,11:47,41-17.80N,141-42.52E,169,10.479,
709,2023/4/29,11:48,41-17.40N,141-42.62E,169,10.457,
710,2023/4/29,11:49,41-17.02N,141-42.72E,169,10.389,
711,2023/4/29,11:50,41-16.65N,141-42.81E,169,10.454,
712,2023/4/29,11:51,41-16.25N,141-42.91E,169,10.382,
713,2023/4/29,11:52,41-15.88N,141-43.00E,169,10.379,
714,2023/4/29,11:53,41-15.50N,141-43.09E,169,10.389,
715,2023/4/29,11:54,41-15.11N,141-43.19E,169,10.447,
716,2023/4/29,11:55,41-14.74N,141-43.27E,169,10.518,
717,2023/4/29,11:56,41-14.36N,141-43.36E,169,10.474,
718,2023/4/29,11:57,41-13.98N,141-43.45E,169,10.461,
719,2023/4/29,11:58,41-13.60N,141-43.54E,169,10.515,
720,2023/4/29,11:59,41-13.22N,141-43.64E,169,10.488,
721,2023/4/29,12:00,41-12.84N,141-43.73E,169,10.665,
722,2023/4/29,12:01,41-12.45N,141-43.82E,169,10.78,
723,2023/4/29,12:02,41-12.08N,141-43.91E,168,10.778,
724,2023/4/29,12:03,41-11.65N,141-44.02E,169,10.747,
725,2023/4/29,12:04,41-11.25N,141-44.12E,169,10.756,
726,2023/4/29,12:05,41-10.89N,141-44.21E,169,10.688,
727,2023/4/29,12:06,41-10.55N,141-44.29E,169,10.65,
728,2023/4/29,12:07,41-10.15N,141-44.39E,169,10.65,
729,2023/4/29,12:08,41-09.74N,141-44.49E,169,10.698,
730,2023/4/29,12:09,41-09.36N,141-44.59E,169,10.732,
731,2023/4/29,12:10,41-09.03N,141-44.66E,169,10.621,
732,2023/4/29,12:11,41-08.64N,141-44.76E,169,10.592,
733,2023/4/29,12:12,41-08.27N,141-44.85E,169,10.569,
734,2023/4/29,12:13,41-07.89N,141-44.94E,169,10.636,
735,2023/4/29,12:14,41-07.50N,141-45.04E,169,10.725,
736,2023/4/29,12:15,41-07.13N,141-45.13E,169,10.698,
737,2023/4/29,12:16,41-06.73N,141-45.23E,169,10.71,
738,2023/4/29,12:17,41-06.36N,141-45.32E,169,10.803,
739,2023/4/29,12:18,41-05.97N,141-45.41E,169,10.595,
740,2023/4/29,12:19,41-05.59N,141-45.50E,169,10.557,
741,2023/4/29,12:20,41-05.21N,141-45.59E,169,10.63,
742,2023/4/29,12:21,41-04.82N,141-45.69E,168,10.69,
743,2023/4/29,12:22,41-04.42N,141-45.79E,169,10.543,
744,2023/4/29,12:23,41-04.05N,141-45.87E,169,10.656,
745,2023/4/29,12:24,41-03.65N,141-45.97E,169,10.587,
746,2023/4/29,12:25,41-03.27N,141-46.06E,169,10.576,
747,2023/4/29,12:26,41-02.88N,141-46.14E,170,10.731,
748,2023/4/29,12:27,41-02.48N,141-46.24E,169,10.626,
749,2023/4/29,12:28,41-02.11N,141-46.33E,170,10.493,
750,2023/4/29,12:29,41-01.70N,141-46.41E,170,10.466,
751,2023/4/29,12:30,41-01.31N,141-46.51E,170,10.45,
752,2023/4/29,12:31,41-00.93N,141-46.59E,170,10.487,
753,2023/4/29,12:32,41-00.53N,141-46.68E,170,10.497,
754,2023/4/29,12:33,41-00.14N,141-46.77E,170,10.624,
755,2023/4/29,12:34,40-59.74N,141-46.86E,170,10.54,
756,2023/4/29,12:35,40-59.36N,141-46.94E,170,10.409,
757,2023/4/29,12:36,40-58.96N,141-47.03E,170,10.42,
758,2023/4/29,12:37,40-58.57N,141-47.11E,170,10.486,
759,2023/4/29,12:38,40-58.18N,141-47.19E,170,10.525,
760,2023/4/29,12:39,40-57.78N,141-47.28E,171,10.402,
761,2023/4/29,12:40,40-57.39N,141-47.35E,171,10.496,
762,2023/4/29,12:41,40-57.00N,141-47.43E,171,10.516,
763,2023/4/29,12:42,40-56.58N,141-47.52E,171,10.532,
764,2023/4/29,12:43,40-56.22N,141-47.59E,171,10.594,
765,2023/4/29,12:44,40-55.82N,141-47.67E,171,10.594,
766,2023/4/29,12:45,40-55.43N,141-47.75E,170,10.566,
767,2023/4/29,12:46,40-55.04N,141-47.83E,171,10.447,
768,2023/4/29,12:47,40-54.63N,141-47.92E,171,10.56,
769,2023/4/29,12:48,40-54.24N,141-47.99E,171,10.454,
770,2023/4/29,12:49,40-53.85N,141-48.07E,171,10.447,
771,2023/4/29,12:50,40-53.47N,141-48.15E,171,10.513,
772,2023/4/29,12:51,40-53.08N,141-48.23E,171,10.444,
773,2023/4/29,12:52,40-52.68N,141-48.31E,171,10.405,
774,2023/4/29,12:53,40-52.28N,141-48.39E,171,10.339,
775,2023/4/29,12:54,40-51.87N,141-48.47E,171,10.332,
776,2023/4/29,12:55,40-51.51N,141-48.54E,170,10.276,
777,2023/4/29,12:56,40-51.12N,141-48.63E,170,10.407,
778,2023/4/29,12:57,40-50.72N,141-48.71E,171,10.377,
779,2023/4/29,12:58,40-50.34N,141-48.78E,171,10.275,
780,2023/4/29,12:59,40-49.94N,141-48.87E,170,10.156,
781,2023/4/29,13:00,40-49.55N,141-48.96E,170,10.428,
782,2023/4/29,13:01,40-49.18N,141-49.04E,170,10.357,
783,2023/4/29,13:02,40-48.78N,141-49.13E,170,10.422,
784,2023/4/29,13:03,40-48.40N,141-49.21E,170,10.375,
785,2023/4/29,13:04,40-48.01N,141-49.30E,170,10.463,
786,2023/4/29,13:05,40-47.62N,141-49.39E,170,10.426,
787,2023/4/29,13:06,40-47.25N,141-49.47E,170,10.495,
788,2023/4/29,13:07,40-46.87N,141-49.56E,170,10.417,
789,2023/4/29,13:08,40-46.48N,141-49.65E,170,10.322,
790,2023/4/29,13:09,40-46.11N,141-49.73E,170,10.285,
791,2023/4/29,13:10,40-45.72N,141-49.81E,170,10.397,
792,2023/4/29,13:11,40-45.36N,141-49.89E,170,10.372,
793,2023/4/29,13:12,40-44.98N,141-49.98E,170,10.33,
794,2023/4/29,13:13,40-44.61N,141-50.06E,170,10.324,
795,2023/4/29,13:14,40-44.22N,141-50.14E,170,10.244,
796,2023/4/29,13:15,40-43.85N,141-50.23E,169,10.378,
797,2023/4/29,13:16,40-43.48N,141-50.32E,169,10.549,
798,2023/4/29,13:17,40-43.09N,141-50.41E,170,10.639,
799,2023/4/29,13:18,40-42.72N,141-50.49E,170,10.813,
800,2023/4/29,13:19,40-42.33N,141-50.58E,170,10.802,
801,2023/4/29,13:20,40-41.96N,141-50.67E,170,10.694,
802,2023/4/29,13:21,40-41.57N,141-50.75E,170,10.652,
803,2023/4/29,13:22,40-41.19N,141-50.84E,170,10.724,
804,2023/4/29,13:23,40-40.79N,141-50.93E,169,10.738,
805,2023/4/29,13:24,40-40.42N,141-51.02E,170,10.936,
806,2023/4/29,13:25,40-40.03N,141-51.10E,170,10.935,
807,2023/4/29,13:26,40-39.67N,141-51.19E,170,10.608,
808,2023/4/29,13:27,40-39.28N,141-51.28E,170,10.459,
809,2023/4/29,13:28,40-38.90N,141-51.36E,170,10.203,
810,2023/4/29,13:29,40-38.52N,141-51.45E,170,10.223,
811,2023/4/29,13:30,40-38.15N,141-51.53E,169,10.053,
812,2023/4/29,13:31,40-37.77N,141-51.62E,170,9.902,
813,2023/4/29,13:32,40-37.39N,141-51.71E,170,10.215,
814,2023/4/29,13:33,40-37.01N,141-51.80E,169,10.363,
815,2023/4/29,13:34,40-36.64N,141-51.88E,170,10.157,
816,2023/4/29,13:35,40-36.27N,141-51.96E,170,9.963,
817,2023/4/29,13:36,40-35.90N,141-52.05E,170,9.744,
818,2023/4/29,13:37,40-35.52N,141-52.14E,169,9.767,
819,2023/4/29,13:38,40-35.15N,141-52.23E,169,9.813,
820,2023/4/29,13:39,40-34.78N,141-52.31E,169,9.996,
821,2023/4/29,13:40,40-34.41N,141-52.40E,170,10.208,
822,2023/4/29,13:41,40-34.04N,141-52.49E,169,10.227,
823,2023/4/29,13:42,40-33.66N,141-52.58E,169,10.229,
824,2023/4/29,13:43,40-33.28N,141-52.67E,169,10.216,
825,2023/4/29,13:44,40-32.92N,141-52.75E,169,10.15,
826,2023/4/29,13:45,40-32.54N,141-52.84E,170,10.19,
827,2023/4/29,13:46,40-32.18N,141-52.92E,169,10.23,
828,2023/4/29,13:47,40-31.79N,141-53.01E,169,10.187,
829,2023/4/29,13:48,40-31.41N,141-53.10E,169,10.206,
830,2023/4/29,13:49,40-31.05N,141-53.18E,170,10.254,
831,2023/4/29,13:50,40-30.67N,141-53.27E,170,10.237,
832,2023/4/29,13:51,40-30.30N,141-53.35E,170,10.194,
833,2023/4/29,13:52,40-29.92N,141-53.44E,170,10.276,
834,2023/4/29,13:53,40-29.55N,141-53.53E,170,10.3,
835,2023/4/29,13:54,40-29.17N,141-53.61E,170,10.208,
836,2023/4/29,13:55,40-28.79N,141-53.70E,170,10.067,
837,2023/4/29,13:56,40-28.42N,141-53.78E,170,10.062,
838,2023/4/29,13:57,40-28.03N,141-53.87E,169,10.295,
839,2023/4/29,13:58,40-27.66N,141-53.96E,170,10.303,
840,2023/4/29,13:59,40-27.29N,141-54.04E,170,10.417,
841,2023/4/29,14:00,40-26.91N,141-54.13E,170,10.488,
842,2023/4/29,14:01,40-26.52N,141-54.22E,170,10.537,
843,2023/4/29,14:02,40-26.15N,141-54.30E,170,10.588,
844,2023/4/29,14:03,40-25.76N,141-54.38E,172,10.562,
845,2023/4/29,14:04,40-25.38N,141-54.45E,172,10.581,
846,2023/4/29,14:05,40-25.02N,141-54.51E,172,10.573,
847,2023/4/29,14:06,40-24.64N,141-54.58E,172,10.569,
848,2023/4/29,14:07,40-24.26N,141-54.65E,172,10.461,
849,2023/4/29,14:08,40-23.87N,141-54.71E,172,10.438,
850,2023/4/29,14:09,40-23.51N,141-54.77E,172,10.399,
851,2023/4/29,14:10,40-23.13N,141-54.84E,172,10.486,
852,2023/4/29,14:11,40-22.73N,141-54.91E,172,10.713,
853,2023/4/29,14:12,40-22.36N,141-54.97E,172,10.718,
854,2023/4/29,14:13,40-21.99N,141-55.03E,172,10.599,
855,2023/4/29,14:14,40-21.61N,141-55.10E,173,10.505,
856,2023/4/29,14:15,40-21.24N,141-55.19E,169,10.614,
857,2023/4/29,14:16,40-20.86N,141-55.29E,168,10.783,
858,2023/4/29,14:17,40-20.49N,141-55.39E,168,10.825,
859,2023/4/29,14:18,40-20.13N,141-55.49E,168,10.838,
860,2023/4/29,14:19,40-19.76N,141-55.60E,168,10.77,
861,2023/4/29,14:20,40-19.39N,141-55.70E,168,10.748,
862,2023/4/29,14:21,40-19.02N,141-55.80E,167,10.774,
863,2023/4/29,14:22,40-18.65N,141-55.90E,168,10.602,
864,2023/4/29,14:23,40-18.28N,141-56.00E,168,10.439,
865,2023/4/29,14:24,40-17.90N,141-56.11E,168,10.668,
866,2023/4/29,14:25,40-17.53N,141-56.24E,164,10.71,
867,2023/4/29,14:26,40-17.18N,141-56.37E,164,10.679,
868,2023/4/29,14:27,40-16.80N,141-56.50E,164,10.882,
869,2023/4/29,14:28,40-16.44N,141-56.63E,164,10.661,
870,2023/4/29,14:29,40-16.08N,141-56.75E,164,10.662,
871,2023/4/29,14:30,40-15.70N,141-56.89E,165,10.499,
872,2023/4/29,14:31,40-15.35N,141-57.01E,165,10.467,
873,2023/4/29,14:32,40-14.97N,141-57.14E,165,10.643,
874,2023/4/29,14:33,40-14.60N,141-57.27E,165,10.629,
875,2023/4/29,14:34,40-14.25N,141-57.39E,165,10.597,
876,2023/4/29,14:35,40-13.87N,141-57.52E,165,10.585,
877,2023/4/29,14:36,40-13.49N,141-57.65E,165,10.602,
878,2023/4/29,14:37,40-13.14N,141-57.77E,165,10.578,
879,2023/4/29,14:38,40-12.78N,141-57.89E,165,10.577,
880,2023/4/29,14:39,40-12.41N,141-58.02E,165,10.616,
881,2023/4/29,14:40,40-12.04N,141-58.14E,165,10.584,
882,2023/4/29,14:41,40-11.68N,141-58.26E,165,10.524,
883,2023/4/29,14:42,40-11.31N,141-58.39E,165,10.524,
884,2023/4/29,14:43,40-10.96N,141-58.50E,165,10.508,
885,2023/4/29,14:44,40-10.60N,141-58.62E,166,10.491,
886,2023/4/29,14:45,40-10.25N,141-58.77E,162,10.29,
887,2023/4/29,14:46,40-09.91N,141-58.91E,162,10.291,
888,2023/4/29,14:47,40-09.56N,141-59.05E,162,10.475,
889,2023/4/29,14:48,40-09.22N,141-59.19E,162,10.403,
890,2023/4/29,14:49,40-08.87N,141-59.33E,162,10.455,
891,2023/4/29,14:50,40-08.51N,141-59.48E,162,10.565,
892,2023/4/29,14:51,40-08.18N,141-59.62E,162,10.654,
893,2023/4/29,14:52,40-07.83N,141-59.77E,161,10.654,
894,2023/4/29,14:53,40-07.48N,141-59.92E,162,10.547,
895,2023/4/29,14:54,40-07.16N,142-00.05E,162,10.529,
896,2023/4/29,14:55,40-06.81N,142-00.20E,162,10.445,
897,2023/4/29,14:56,40-06.48N,142-00.34E,162,10.39,
898,2023/4/29,14:57,40-06.13N,142-00.48E,163,10.345,
899,2023/4/29,14:58,40-05.80N,142-00.61E,163,10.264,
900,2023/4/29,14:59,40-05.46N,142-00.75E,162,10.232,
901,2023/4/29,15:00,40-05.11N,142-00.88E,164,10.259,
902,2023/4/29,15:01,40-04.78N,142-01.00E,164,10.344,
903,2023/4/29,15:02,40-04.43N,142-01.13E,164,10.421,
904,2023/4/29,15:03,40-04.10N,142-01.25E,164,10.464,
905,2023/4/29,15:04,40-03.75N,142-01.38E,164,10.545,
906,2023/4/29,15:05,40-03.40N,142-01.51E,164,10.572,
907,2023/4/29,15:06,40-03.06N,142-01.62E,165,10.558,
908,2023/4/29,15:07,40-02.70N,142-01.75E,165,10.51,
909,2023/4/29,15:08,40-02.37N,142-01.86E,165,10.429,
910,2023/4/29,15:09,40-02.02N,142-01.98E,165,10.363,
911,2023/4/29,15:10,40-01.66N,142-02.10E,165,10.247,
912,2023/4/29,15:11,40-01.32N,142-02.22E,165,10.116,
913,2023/4/29,15:12,40-00.97N,142-02.34E,165,10.049,
914,2023/4/29,15:13,40-00.62N,142-02.45E,165,9.97,
915,2023/4/29,15:14,40-00.28N,142-02.56E,166,9.964,
916,2023/4/29,15:15,39-59.93N,142-02.67E,166,9.998,
917,2023/4/29,15:16,39-59.59N,142-02.78E,166,10.002,
918,2023/4/29,15:17,39-59.24N,142-02.89E,166,9.97,
919,2023/4/29,15:18,39-58.90N,142-02.99E,166,9.921,
920,2023/4/29,15:19,39-58.55N,142-03.10E,166,9.836,
921,2023/4/29,15:20,39-58.20N,142-03.21E,166,9.716,
922,2023/4/29,15:21,39-57.86N,142-03.31E,166,9.593,
923,2023/4/29,15:22,39-57.50N,142-03.42E,167,9.572,
924,2023/4/29,15:23,39-57.15N,142-03.53E,166,9.575,
925,2023/4/29,15:24,39-56.81N,142-03.63E,166,9.5,
926,2023/4/29,15:25,39-56.46N,142-03.74E,166,9.457,
927,2023/4/29,15:26,39-56.11N,142-03.85E,166,9.459,
928,2023/4/29,15:27,39-55.75N,142-03.96E,166,9.401,
929,2023/4/29,15:28,39-55.43N,142-04.06E,166,9.556,
930,2023/4/29,15:29,39-55.08N,142-04.17E,166,9.859,
931,2023/4/29,15:30,39-54.73N,142-04.28E,166,9.929,
932,2023/4/29,15:31,39-54.38N,142-04.39E,166,9.79,
933,2023/4/29,15:32,39-54.04N,142-04.50E,166,9.744,
934,2023/4/29,15:33,39-53.70N,142-04.61E,166,9.719,
935,2023/4/29,15:34,39-53.35N,142-04.72E,166,9.683,
936,2023/4/29,15:35,39-53.00N,142-04.84E,166,9.714,
937,2023/4/29,15:36,39-52.64N,142-04.95E,165,9.56,
938,2023/4/29,15:37,39-52.30N,142-05.07E,165,9.63,
939,2023/4/29,15:38,39-51.96N,142-05.18E,165,9.908,
940,2023/4/29,15:39,39-51.61N,142-05.30E,165,9.936,
941,2023/4/29,15:40,39-51.26N,142-05.41E,165,9.83,
942,2023/4/29,15:41,39-50.91N,142-05.53E,165,9.71,
943,2023/4/29,15:42,39-50.57N,142-05.64E,165,9.61,
944,2023/4/29,15:43,39-50.23N,142-05.76E,165,9.521,
945,2023/4/29,15:44,39-49.88N,142-05.88E,165,9.507,